loading
|

STARLINK-11235, 60726

Orbit data source: Space-Track

STARLINK-11235, 60726 is a payload satellite owned by SpaceX/Seattle (US) in LEO that was launched on Wed, 28 Aug 2024 UTC via an FALCON 9 launch vehicle from the Air Force Eastern Test Range (AFETR). Payloads include a variety of satellites, spacecraft, and rockets equipped with specific instruments for various scientific and technological missions. These include communications satellites like Starlink; space stations such as the ISS; scientific satellites like the Hubble; Earth observation satellites from companies like Planet Labs, Umbra, and HawkEye 360; GPS; miniature CubeSats for education and research; and military/defense satellites.

Loading next visibility...
Next conjunction unknown
Loading greatness...
STARLINK-11235 details
Identifier
60726, 2024-152G
Orbit
LEO
Last TLE update18 hours ago
Origin
Flag of USSpaceX/Seattle (US)
ManufacturerSpaceX/Seattle
MissionOperational spacecraft
Bus & MotorSTARLINK V2M, Unknown motor
Mass750 kg wet, ~700 kg dry
Launch date (UTC)
2024-08-28 (2 months ago)
Launch vehicle
FALCON 9
Launch site
Air Force Eastern Test Range (AFETR)
Object type
Payload
Rocket body
Debris
Shape & HBRUnknown
Radar Cross SectionLarge (>1 m²)

Expand to show TLE details & history

TLE from 18 hours ago
0 STARLINK-11235
1 60726U 24152G   24287.90452027  .00010265  00000-0  89544-4 0  9995
2 60726  53.1589 119.1501 0001238 108.8329 251.2823 15.69693054  8589
Epoch: 2024-10-13T21:42Z
Definitive object data (Epoch: 2024-10-13T21:42:30.551Z)
Latitude-0.00003°
Longitude130.58346°
Altitude360.958 km
Speed7.694 km/s
True Right ascension07h 56m 36s
True Declination0° 00' 00"
Sunlit
Object was in daylight at TLE epoch
Predictive object data (real-time)
Latitude-42.04669°
Longitude-10.86093°
Altitude374.213 km
Speed7.685 km/s
Apparent Right ascension22h 18m 17s
Apparent Declination-40° 52' 13"
Sunlit
Object is in full shadow
Predictive observer data (real-time)
Local Sidereal Time10:05:26
Azimuth247.658° W
Elevation-87.374°
Doppler factor1
Orbital elements
Apogee360.87 km
Perigee359.202 km
Semi-major axis6,738.173 km
Eccentricity0.0001238
Inclination53.1589°
RAAN119.1501°
Arg. of periapsis108.8329°
True anomaly251.26886°
Mean anomaly251.2823°
Eccentric anomaly251.27558°
Mean motion3.92401 °/min
BSTAR0.000089544
Period91.74 mins
No data available

STARLINK-11235 Visibility forecast

Observer location: 39.9160978°, -105.1181434

Span
Click to sort rows by Start time (UTC) header in descending order
Start Az.
Max El. time (UTC)
Max El. Az.
Max El.
End time (UTC)
End Az.
5 mins2024-10-14 16:15:13.515Z258.874° W2024-10-14 16:17:13.515Z304.196° NW29.11°2024-10-14 16:20:13.515Z33.955° NE